| time (UTC) | temp F | wind direction | speed MPH | gust MPH | rain 1hr in | rain 24hr in | rain mn in | humidity % | barometer mb |
| 20260904200246 | 91 | 45 | 2.0 | 9.0 | 0.00 | 0.00 | 0.00 | 13 | 1007.9 |
| 20260904195232 | 92 | 14 | 5.0 | 10.0 | 0.00 | 0.00 | 0.00 | 13 | 1008.0 |
| 20260904194235 | 90 | 325 | 1.0 | 9.0 | 0.00 | 0.00 | 0.00 | 14 | 1008.2 |
| 20260904193240 | 90 | 77 | 6.0 | 12.0 | 0.00 | 0.00 | 0.00 | 14 | 1008.2 |
| 20260904192242 | 89 | 19 | 7.0 | 10.0 | 0.00 | 0.00 | 0.00 | 14 | 1008.2 |
| 20260904191301 | 89 | 360 | 6.0 | 10.0 | 0.00 | 0.00 | 0.00 | 14 | 1008.5 |
| 20260904190249 | 90 | 13 | 6.0 | 10.0 | 0.00 | 0.00 | 0.00 | 14 | 1008.5 |
| 20260904185239 | 90 | 344 | 5.0 | 12.0 | 0.00 | 0.00 | 0.00 | 15 | 1008.7 |
| 20260904184234 | 90 | 22 | 7.0 | 11.0 | 0.00 | 0.00 | 0.00 | 14 | 1008.7 |
| 20260904183240 | 90 | 67 | 3.0 | 7.0 | 0.00 | 0.00 | 0.00 | 14 | 1008.7 |
| 20260904182250 | 90 | 13 | 4.0 | 7.0 | 0.00 | 0.00 | 0.00 | 15 | 1008.8 |
| 20260904181247 | 90 | 42 | 1.0 | 7.0 | 0.00 | 0.00 | 0.00 | 14 | 1009.1 |
| 20260904180239 | 90 | 5 | 4.0 | 8.0 | 0.00 | 0.00 | 0.00 | 14 | 1009.1 |
| 20260904175246 | 89 | 45 | 2.0 | 4.0 | 0.00 | 0.00 | 0.00 | 15 | 1009.3 |
| 20260904174235 | 88 | 45 | 4.0 | 6.0 | 0.00 | 0.00 | 0.00 | 14 | 1009.3 |
| 20260904173232 | 87 | 248 | 1.0 | 11.0 | 0.00 | 0.00 | 0.00 | 14 | 1009.3 |
| 20260904172234 | 87 | 102 | 1.0 | 9.0 | 0.00 | 0.00 | 0.00 | 16 | 1009.3 |
| 20260904171243 | 86 | 292 | 3.0 | 11.0 | 0.00 | 0.00 | 0.00 | 15 | 1009.2 |
| 20260904170228 | 86 | 173 | 6.0 | 10.0 | 0.00 | 0.00 | 0.00 | 16 | 1009.2 |
| 20260904165246 | 86 | 181 | 2.0 | 10.0 | 0.00 | 0.00 | 0.00 | 16 | 1009.3 |
| 20260904164248 | 85 | 219 | 1.0 | 9.0 | 0.00 | 0.00 | 0.00 | 15 | 1009.3 |
| 20260904163244 | 85 | 270 | 3.0 | 8.0 | 0.00 | 0.00 | 0.00 | 16 | 1009.3 |
| 20260904162246 | 84 | 242 | 5.0 | 10.0 | 0.00 | 0.00 | 0.00 | 15 | 1009.3 |
| 20260904161230 | 83 | 180 | 5.0 | 9.0 | 0.00 | 0.00 | 0.00 | 16 | 1009.4 |
| 20260904160232 | 82 | 208 | 6.0 | 11.0 | 0.00 | 0.00 | 0.00 | 18 | 1009.4 |
| 20260904155230 | 81 | 203 | 3.0 | 8.0 | 0.00 | 0.00 | 0.00 | 17 | 1009.4 |
| 20260904154236 | 80 | 182 | 5.0 | 9.0 | 0.00 | 0.00 | 0.00 | 18 | 1009.3 |
| 20260904153241 | 79 | 201 | 2.0 | 7.0 | 0.00 | 0.00 | 0.00 | 19 | 1009.3 |
| 20260904152245 | 77 | 192 | 4.0 | 10.0 | 0.00 | 0.00 | 0.00 | 20 | 1009.3 |
| 20260904151227 | 76 | 181 | 8.0 | 12.0 | 0.00 | 0.00 | 0.00 | 20 | 1009.3 |
| 20260904150230 | 75 | 208 | 4.0 | 9.0 | 0.00 | 0.00 | 0.00 | 22 | 1009.3 |
| 20260904145252 | 73 | 205 | 3.0 | 6.0 | 0.00 | 0.00 | 0.00 | 22 | 1009.3 |
| 20260904144239 | 72 | 242 | 3.0 | 9.0 | 0.00 | 0.00 | 0.00 | 25 | 1009.3 |
| 20260904143244 | 71 | 206 | 2.0 | 5.0 | 0.00 | 0.00 | 0.00 | 26 | 1009.3 |
| 20260904142230 | 70 | 204 | 1.0 | 8.0 | 0.00 | 0.00 | 0.00 | 25 | 1009.2 |
| 20260904141236 | 68 | 169 | 3.0 | 4.0 | 0.00 | 0.00 | 0.00 | 28 | 1008.9 |
| 20260904140240 | 66 | 169 | 5.0 | 7.0 | 0.00 | 0.00 | 0.00 | 33 | 1008.9 |
| 20260904135247 | 66 | 360 | 1.0 | 3.0 | 0.00 | 0.00 | 0.00 | 39 | 1008.8 |
| 20260904134244 | 65 | 360 | 4.0 | 9.0 | 0.00 | 0.00 | 0.00 | 34 | 1008.7 |
| 20260904133230 | 61 | 168 | 5.0 | 7.0 | 0.00 | 0.00 | 0.00 | 45 | 1008.7 |
| 20260904132234 | 59 | 360 | 3.0 | 5.0 | 0.00 | 0.00 | 0.00 | 49 | 1008.5 |
| 20260904131234 | 57 | 360 | 2.0 | 4.0 | 0.00 | 0.00 | 0.00 | 53 | 1008.3 |
| 20260904130259 | 57 | 360 | 2.0 | 4.0 | 0.00 | 0.00 | 0.00 | 51 | 1008.3 |
| 20260904125245 | 57 | 177 | 1.0 | 5.0 | 0.00 | 0.00 | 0.00 | 50 | 1008.1 |
| 20260904124236 | 57 | 177 | 2.0 | 6.0 | 0.00 | 0.00 | 0.00 | 50 | 1008.1 |
| 20260904123301 | 57 | 182 | 3.0 | 6.0 | 0.00 | 0.00 | 0.00 | 48 | 1008.1 |
| 20260904122243 | 57 | 182 | 4.0 | 7.0 | 0.00 | 0.00 | 0.00 | 48 | 1008.0 |
| 20260904121229 | 57 | 183 | 3.0 | 4.0 | 0.00 | 0.00 | 0.00 | 48 | 1008.1 |
| 20260904120228 | 57 | 183 | 3.0 | 4.0 | 0.00 | 0.00 | 0.00 | 49 | 1008.1 |
| 20260904115237 | 57 | 183 | 2.0 | 6.0 | 0.00 | 0.00 | 0.00 | 47 | 1007.8 |
| 20260904114242 | 58 | 183 | 4.0 | 5.0 | 0.00 | 0.00 | 0.00 | 44 | 1007.8 |
| 20260904113245 | 59 | 184 | 2.0 | 4.0 | 0.00 | 0.00 | 0.00 | 42 | 1007.8 |
| 20260904112229 | 58 | 184 | 3.0 | 5.0 | 0.00 | 0.00 | 0.00 | 43 | 1007.8 |
| 20260904111234 | 59 | 184 | 3.0 | 4.0 | 0.00 | 0.00 | 0.00 | 42 | 1007.6 |
| 20260904110234 | 60 | 184 | 4.0 | 5.0 | 0.00 | 0.00 | 0.00 | 39 | 1007.6 |
| 20260904105235 | 62 | 184 | 4.0 | 5.0 | 0.00 | 0.00 | 0.00 | 36 | 1007.5 |
| 20260904104236 | 63 | 196 | 3.0 | 5.0 | 0.00 | 0.00 | 0.00 | 34 | 1007.4 |
| 20260904103240 | 63 | 210 | 2.0 | 4.0 | 0.00 | 0.00 | 0.00 | 34 | 1007.4 |
| 20260904102246 | 64 | 210 | 2.0 | 4.0 | 0.00 | 0.00 | 0.00 | 33 | 1006.9 |
| 20260904101248 | 64 | 210 | 2.0 | 7.0 | 0.00 | 0.00 | 0.00 | 32 | 1006.8 |
| 20260904100228 | 64 | 214 | 2.0 | 7.0 | 0.00 | 0.00 | 0.00 | 35 | 1006.8 |
| 20260904095231 | 63 | 186 | 2.0 | 4.0 | 0.00 | 0.00 | 0.00 | 37 | 1006.8 |
| 20260904094255 | 62 | 186 | 0.0 | 3.0 | 0.00 | 0.00 | 0.00 | 40 | 1006.7 |
| 20260904093238 | 63 | 186 | 0.0 | 2.0 | 0.00 | 0.00 | 0.00 | 39 | 1006.7 |
| 20260904092244 | 64 | 186 | 0.0 | 2.0 | 0.00 | 0.00 | 0.00 | 37 | 1006.3 |
| 20260904091246 | 65 | 186 | 3.0 | 7.0 | 0.00 | 0.00 | 0.00 | 35 | 1006.2 |
| 20260904090231 | 64 | 187 | 0.0 | 4.0 | 0.00 | 0.00 | 0.00 | 36 | 1006.2 |
| 20260904085231 | 65 | 187 | 2.0 | 6.0 | 0.00 | 0.00 | 0.00 | 34 | 1006.2 |
| 20260904084240 | 66 | 188 | 3.0 | 6.0 | 0.00 | 0.00 | 0.00 | 33 | 1006.2 |
| 20260904083241 | 66 | 198 | 0.0 | 3.0 | 0.00 | 0.00 | 0.00 | 37 | 1006.2 |
| 20260904082229 | 66 | 198 | 1.0 | 3.0 | 0.00 | 0.00 | 0.00 | 35 | 1006.2 |
| 20260904081232 | 67 | 198 | 1.0 | 4.0 | 0.00 | 0.00 | 0.00 | 36 | 1006.3 |
| 20260904080236 | 68 | 198 | 0.0 | 3.0 | 0.00 | 0.00 | 0.00 | 38 | 1006.3 |
| 20260904075239 | 68 | 196 | 1.0 | 8.0 | 0.00 | 0.00 | 0.00 | 36 | 1006.2 |
| 20260904074243 | 70 | 185 | 6.0 | 12.0 | 0.00 | 0.00 | 0.00 | 35 | 1006.2 |
| 20260904073245 | 71 | 207 | 6.0 | 10.0 | 0.00 | 0.00 | 0.00 | 34 | 1006.2 |
| 20260904072235 | 71 | 193 | 9.0 | 14.0 | 0.00 | 0.00 | 0.00 | 34 | 1006.2 |
| 20260904071231 | 72 | 178 | 8.0 | 12.0 | 0.00 | 0.00 | 0.00 | 32 | 1006.2 |
| 20260904070240 | 73 | 173 | 8.0 | 13.0 | 0.00 | 0.00 | 0.00 | 31 | 1006.2 |
| 20260904065242 | 73 | 169 | 10.0 | 14.0 | 0.00 | 0.00 | 0.00 | 31 | 1006.3 |
| 20260904064255 | 72 | 360 | 8.0 | 12.0 | 0.00 | 0.00 | 0.00 | 31 | 1006.5 |
| 20260904063243 | 72 | 360 | 6.0 | 10.0 | 0.00 | 0.00 | 0.00 | 31 | 1006.5 |
| 20260904062310 | 72 | 360 | 7.0 | 14.0 | 0.00 | 0.00 | 0.00 | 31 | 1006.5 |
| 20260904061231 | 71 | 175 | 6.0 | 8.0 | 0.00 | 0.00 | 0.00 | 30 | 1006.8 |
| 20260904060253 | 70 | 174 | 5.0 | 7.0 | 0.00 | 0.00 | 0.00 | 32 | 1006.8 |
| 20260904055236 | 69 | 161 | 2.0 | 5.0 | 0.00 | 0.00 | 0.00 | 33 | 1006.8 |
| 20260904054244 | 69 | 161 | 2.0 | 4.0 | 0.00 | 0.00 | 0.00 | 31 | 1006.9 |
| 20260904053248 | 71 | 161 | 2.0 | 5.0 | 0.00 | 0.00 | 0.00 | 29 | 1006.9 |
| 20260904052231 | 71 | 360 | 3.0 | 6.0 | 0.00 | 0.00 | 0.00 | 29 | 1006.9 |
| 20260904051231 | 70 | 360 | 3.0 | 7.0 | 0.00 | 0.00 | 0.00 | 27 | 1007.2 |
| 20260904050231 | 68 | 169 | 2.0 | 8.0 | 0.00 | 0.00 | 0.00 | 31 | 1007.2 |
| 20260904045234 | 67 | 163 | 1.0 | 6.0 | 0.00 | 0.00 | 0.00 | 33 | 1007.4 |
| 20260904044303 | 67 | 163 | 2.0 | 7.0 | 0.00 | 0.00 | 0.00 | 31 | 1006.9 |
| 20260904043244 | 67 | 360 | 4.0 | 7.0 | 0.00 | 0.00 | 0.00 | 31 | 1006.9 |
| 20260904042310 | 68 | 170 | 3.0 | 6.0 | 0.00 | 0.00 | 0.00 | 30 | 1006.8 |
| 20260904041258 | 68 | 185 | 3.0 | 4.0 | 0.00 | 0.00 | 0.00 | 29 | 1006.8 |
| 20260904040238 | 69 | 360 | 2.0 | 5.0 | 0.00 | 0.00 | 0.00 | 30 | 1006.8 |
| 20260904035245 | 70 | 255 | 2.0 | 4.0 | 0.00 | 0.00 | 0.00 | 27 | 1006.8 |
| 20260904034247 | 72 | 229 | 1.0 | 4.0 | 0.00 | 0.00 | 0.00 | 26 | 1006.6 |
| 20260904033231 | 73 | 229 | 3.0 | 4.0 | 0.00 | 0.00 | 0.00 | 25 | 1006.6 |
| 20260904032259 | 73 | 229 | 3.0 | 5.0 | 0.00 | 0.00 | 0.00 | 25 | 1006.3 |
| 20260904031240 | 75 | 232 | 2.0 | 5.0 | 0.00 | 0.00 | 0.00 | 23 | 1006.2 |
| 20260904030240 | 75 | 232 | 2.0 | 5.0 | 0.00 | 0.00 | 0.00 | 23 | 1006.2 |
| 20260904025309 | 76 | 229 | 3.0 | 8.0 | 0.00 | 0.00 | 0.00 | 22 | 1006.2 |
| 20260904024241 | 77 | 211 | 4.0 | 7.0 | 0.00 | 0.00 | 0.00 | 21 | 1005.7 |
| 20260904023241 | 77 | 208 | 5.0 | 9.0 | 0.00 | 0.00 | 0.00 | 21 | 1005.7 |
| 20260904022242 | 76 | 203 | 6.0 | 12.0 | 0.00 | 0.00 | 0.00 | 22 | 1005.5 |
| 20260904021230 | 77 | 182 | 4.0 | 12.0 | 0.00 | 0.00 | 0.00 | 21 | 1004.9 |
| 20260904020301 | 77 | 182 | 6.0 | 9.0 | 0.00 | 0.00 | 0.00 | 21 | 1004.9 |
| 20260904015246 | 78 | 360 | 4.0 | 9.0 | 0.00 | 0.00 | 0.00 | 19 | 1004.9 |
| 20260904014234 | 80 | 360 | 4.0 | 8.0 | 0.00 | 0.00 | 0.00 | 18 | 1004.7 |
| 20260904013245 | 80 | 202 | 4.0 | 7.0 | 0.00 | 0.00 | 0.00 | 17 | 1004.7 |
| 20260904012248 | 83 | 169 | 5.0 | 9.0 | 0.00 | 0.00 | 0.00 | 16 | 1004.4 |
| 20260904011250 | 84 | 165 | 7.0 | 11.0 | 0.00 | 0.00 | 0.00 | 15 | 1004.3 |
| 20260904010233 | 84 | 171 | 9.0 | 15.0 | 0.00 | 0.00 | 0.00 | 15 | 1004.3 |
| 20260904005310 | 86 | 182 | 12.0 | 18.0 | 0.00 | 0.00 | 0.00 | 14 | 1004.3 |
| 20260904004255 | 88 | 171 | 9.0 | 17.0 | 0.00 | 0.00 | 0.00 | 14 | 1004.3 |
| 20260904003239 | 88 | 141 | 8.0 | 17.0 | 0.00 | 0.00 | 0.00 | 13 | 1004.3 |
| 20260904002240 | 89 | 197 | 13.0 | 22.0 | 0.00 | 0.00 | 0.00 | 13 | 1004.3 |
| 20260904001240 | 90 | 204 | 10.0 | 19.0 | 0.00 | 0.00 | 0.00 | 10 | 1004.3 |
| 20260904000233 | 90 | 208 | 10.0 | 19.0 | 0.00 | 0.00 | 0.00 | 9 | 1004.3 |
| 20260903235239 | 91 | 198 | 7.0 | 17.0 | 0.00 | 0.00 | 0.00 | 9 | 1004.3 |
| 20260903234301 | 91 | 173 | 11.0 | 16.0 | 0.00 | 0.00 | 0.00 | 9 | 1004.4 |
| 20260903233247 | 92 | 190 | 9.0 | 16.0 | 0.00 | 0.00 | 0.00 | 9 | 1004.4 |
| 20260903232232 | 92 | 169 | 6.0 | 12.0 | 0.00 | 0.00 | 0.00 | 9 | 1004.4 |
| 20260903231231 | 92 | 166 | 9.0 | 16.0 | 0.00 | 0.00 | 0.00 | 10 | 1004.7 |
| 20260903230235 | 92 | 184 | 6.0 | 19.0 | 0.00 | 0.00 | 0.00 | 10 | 1004.7 |
| 20260903225240 | 93 | 167 | 3.0 | 13.0 | 0.00 | 0.00 | 0.00 | 11 | 1004.8 |
| 20260903224240 | 93 | 192 | 8.0 | 18.0 | 0.00 | 0.00 | 0.00 | 10 | 1004.9 |
| 20260903223239 | 92 | 141 | 6.0 | 18.0 | 0.00 | 0.00 | 0.00 | 10 | 1004.9 |
| 20260903222246 | 93 | 139 | 5.0 | 12.0 | 0.00 | 0.00 | 0.00 | 12 | 1004.9 |
| 20260903221235 | 92 | 143 | 5.0 | 10.0 | 0.00 | 0.00 | 0.00 | 11 | 1005.1 |
| 20260903220245 | 92 | 195 | 11.0 | 20.0 | 0.00 | 0.00 | 0.00 | 11 | 1005.1 |
| 20260903215233 | 93 | 192 | 12.0 | 17.0 | 0.00 | 0.00 | 0.00 | 11 | 1005.3 |
| 20260903214241 | 93 | 177 | 5.0 | 12.0 | 0.00 | 0.00 | 0.00 | 13 | 1005.5 |
| 20260903213240 | 92 | 89 | 5.0 | 11.0 | 0.00 | 0.00 | 0.00 | 12 | 1005.5 |
| 20260903212306 | 92 | 161 | 7.0 | 15.0 | 0.00 | 0.00 | 0.00 | 12 | 1005.6 |
| 20260903211246 | 93 | 166 | 5.0 | 11.0 | 0.00 | 0.00 | 0.00 | 12 | 1005.7 |
| 20260903210249 | 93 | 153 | 3.0 | 10.0 | 0.00 | 0.00 | 0.00 | 11 | 1005.7 |
| 20260903205233 | 92 | 102 | 6.0 | 11.0 | 0.00 | 0.00 | 0.00 | 12 | 1006.0 |
| 20260903204237 | 92 | 69 | 5.0 | 11.0 | 0.00 | 0.00 | 0.00 | 12 | 1006.2 |
| 20260903203239 | 91 | 355 | 4.0 | 6.0 | 0.00 | 0.00 | 0.00 | 12 | 1006.2 |
| 20260903202241 | 90 | 80 | 4.0 | 11.0 | 0.00 | 0.00 | 0.00 | 13 | 1006.4 |
| 20260903201244 | 90 | 161 | 6.0 | 18.0 | 0.00 | 0.00 | 0.00 | 13 | 1006.6 |